[[{"header":{"parameterUnit":"m.s-1","parameterCategory":1,"la1":30.2991,"la2":30.254,"lo1":-89.0895,"lo2":-89.0444,"dy":0.0017,"dx":0.0017,"nx":28,"ny":28,"refTime":"2025-08-24T21:00:00:Z","depth":0,"parameterNumber":2,"parameterNumberName":"U-component_of_WINDS"},"data":[0,0,0,0,0,0,0,0,0,0,0,0,0,0,0,0,0,0,0,0,0,0,0,0,0,0,0,0,0,0,0,0,0,0,0,0,0,0,0,0,0,0,0,0,0,0,0,0,0,0,0,0,0,0,0,0,0,0,-2.065,-2.065,0,-2.0606,-2.0605,-2.0604,-2.0573,-2.0572,-2.0572,-2.0572,-2.0524,-2.0523,-2.0522,0,0,0,0,0,0,0,0,0,0,0,0,0,-2.0708,-2.0707,-2.065,-2.065,-2.0649,-2.0606,-2.0605,-2.0604,-2.0573,-2.0572,-2.0572,-2.0572,-2.0525,-2.0523,-2.0522,0,0,0,0,0,0,0,0,0,0,0,0,0,-2.0675,-2.0707,-2.065,-2.0628,-2.0626,-2.0606,-2.0605,-2.0604,-2.0573,-2.0572,-2.0572,-2.0572,-2.0525,-2.0524,-2.0522,-2.052,0,0,-2.0517,-2.0517,0,0,0,0,0,0,0,0,-2.0677,-2.0673,-2.0632,-2.063,-2.0627,-2.0594,-2.0608,-2.0576,-2.0573,-2.0593,-2.0572,-2.0571,-2.0548,-2.0544,-2.0537,-2.0518,-2.0516,-2.0517,-2.0516,-2.0515,-2.0515,0,0,0,0,0,0,0,-2.0679,-2.0675,-2.0633,-2.0631,-2.0628,-2.062,-2.0615,-2.0602,-2.0573,-2.0591,-2.0589,-2.0584,-2.0546,-2.0538,-2.0535,-2.0515,-2.0517,-2.0516,-2.0515,-2.0514,-2.0493,-2.0493,0,0,0,0,0,0,-2.0685,-2.0677,-2.0634,-2.0631,-2.0652,-2.062,-2.0614,-2.0605,-2.0573,-2.0568,-2.0584,-2.0583,-2.0541,-2.0537,-2.0534,-2.0529,-2.0516,-2.0514,-2.0513,-2.0493,-2.0493,-2.0494,0,0,0,0,0,0,-2.0687,-2.0682,-2.0636,-2.0653,-2.0647,-2.0619,-2.0609,-2.0604,-2.0596,-2.0568,-2.0562,-2.0581,-2.0541,-2.0536,-2.0524,-2.0527,-2.0513,-2.0512,-2.0492,-2.0493,-2.0493,-2.052,0,0,0,0,0,0,-2.0688,-2.0682,-2.0681,-2.0654,-2.0646,-2.0627,-2.061,-2.0604,-2.0594,-2.0591,-2.0564,-2.0559,-2.054,-2.0526,-2.0522,-2.0525,-2.0511,-2.0492,-2.0493,-2.0493,-2.0519,-2.0522,-2.0524,0,0,0,0,0,-2.0691,-2.069,-2.0681,-2.0676,-2.0644,-2.0627,-2.0623,-2.0602,-2.0594,-2.0593,-2.0575,-2.056,-2.0528,-2.0525,-2.0521,-2.0522,-2.0492,-2.0492,-2.0493,-2.0518,-2.0521,-2.0524,0,0,0,0,0,0,-2.0717,-2.0686,-2.0676,-2.0666,-2.065,-2.0622,-2.0619,-2.0606,-2.059,-2.0589,-2.0563,-2.0557,-2.0548,-2.0534,-2.0532,-2.0519,-2.0508,-2.0508,-2.0528,-2.0531,-2.0534,-2.0536,-2.0509,0,0,0,0,0,-2.0723,-2.0712,-2.0685,-2.0679,-2.0671,-2.0647,-2.0639,-2.0624,-2.0606,-2.0598,-2.0579,-2.0562,-2.0548,-2.0539,-2.0525,-2.0518,-2.0511,-2.0517,-2.0519,-2.0522,-2.0521,-2.0517,-2.0519,-2.0496,-2.0496,-2.0496,0,0,-2.0732,-2.0714,-2.0708,-2.0684,-2.0669,-2.0658,-2.0641,-2.063,-2.0622,-2.0596,-2.0584,-2.057,-2.0549,-2.054,-2.0534,-2.0528,-2.0526,-2.0523,-2.0525,-2.0523,-2.0518,-2.052,-2.0522,-2.0497,-2.0497,-2.0497,0,0,-2.0744,-2.073,-2.0723,-2.071,-2.0688,-2.0672,-2.0671,-2.0646,-2.0636,-2.0623,-2.0604,-2.0594,-2.0571,-2.0557,-2.0546,-2.0556,-2.0541,-2.0552,-2.0564,-2.0561,-2.0562,-2.0564,-2.0567,-2.0568,-2.0552,-2.0552,-2.0552,0,-2.0759,-2.0742,-2.0722,-2.0712,-2.0702,-2.068,-2.0674,-2.0661,-2.0636,-2.063,-2.0623,-2.0594,-2.0578,-2.0566,-2.0568,-2.0561,-2.0559,-2.0554,-2.0564,-2.0565,-2.0566,-2.0568,-2.057,-2.0554,-2.0554,-2.0553,-2.0553,0,-2.0761,-2.075,-2.0747,-2.0724,-2.0714,-2.0706,-2.0685,-2.0677,-2.0665,-2.065,-2.0638,-2.0619,-2.06,-2.0597,-2.0584,-2.0582,-2.0579,-2.0569,-2.0556,-2.057,-2.0572,-2.0573,-2.0556,-2.0555,-2.0555,-2.0554,0,0,-2.0786,-2.0754,-2.0753,-2.0743,-2.0719,-2.071,-2.0702,-2.0685,-2.0678,-2.0663,-2.0655,-2.0637,-2.0628,-2.0616,-2.0602,-2.0598,-2.0607,-2.0588,-2.0587,-2.0592,-2.0604,-2.0611,-2.0613,-2.0598,-2.0598,-2.0598,-2.0606,0,-2.0793,-2.0777,-2.076,-2.0749,-2.0739,-2.072,-2.0712,-2.0697,-2.0684,-2.0673,-2.0658,-2.0645,-2.0634,-2.0627,-2.0624,-2.0607,-2.0609,-2.0606,-2.059,-2.0589,-2.0594,-2.0614,-2.0621,-2.0628,-2.0607,-2.0607,-2.0607,0,-2.0799,-2.0785,-2.0775,-2.0753,-2.0748,-2.0741,-2.0725,-2.0715,-2.0698,-2.0688,-2.0677,-2.0662,-2.0652,-2.0643,-2.063,-2.0628,-2.0621,-2.0612,-2.0612,-2.0608,-2.0598,-2.0609,-2.063,-2.0631,-2.0608,-2.0608,-2.0608,0,-2.0818,-2.0797,-2.0787,-2.078,-2.0754,-2.075,-2.0739,-2.0722,-2.0713,-2.0699,-2.0693,-2.0678,-2.0669,-2.0658,-2.064,-2.0635,-2.0629,-2.0618,-2.062,-2.062,-2.0617,-2.0617,-2.0636,-2.0616,-2.0615,-2.0615,-2.0615,0,-2.0827,-2.0821,-2.0796,-2.079,-2.0783,-2.0763,-2.0757,-2.0744,-2.0729,-2.072,-2.0703,-2.0696,-2.0673,-2.0663,-2.0648,-2.0639,-2.0636,-2.0628,-2.0624,-2.0628,-2.0629,-2.0621,-2.062,-2.0616,-2.0616,-2.0616,-2.0616,0,-2.0846,-2.0829,-2.0817,-2.0795,-2.0789,-2.0785,-2.0765,-2.0759,-2.0746,-2.0735,-2.0732,-2.071,-2.0698,-2.0679,-2.066,-2.0651,-2.0644,-2.0638,-2.065,-2.0647,-2.065,-2.0649,-2.0663,-2.0664,-2.0644,-2.0644,-2.0645,0,-2.0852,-2.0847,-2.0824,-2.0818,-2.0808,-2.0797,-2.0789,-2.077,-2.0762,-2.0743,-2.0739,-2.0725,-2.0713,-2.0694,-2.0676,-2.0662,-2.0656,-2.0662,-2.0653,-2.0658,-2.0654,-2.0654,-2.0654,-2.0663,-2.0663,-2.0663,-2.0664,0,-2.0865,-2.0857,-2.0845,-2.0831,-2.0822,-2.081,-2.0797,-2.0792,-2.0771,-2.0763,-2.075,-2.0741,-2.0723,-2.0709,-2.0693,-2.0682,-2.0669,-2.0667,-2.0666,-2.067,-2.0677,-2.0672,-2.0653,-2.0666,-2.0666,-2.0666,-2.0665,-2.0665,-2.0877,-2.0871,-2.0855,-2.0843,-2.0832,-2.0821,-2.0814,-2.08,-2.0789,-2.0773,-2.0763,-2.0751,-2.0735,-2.0713,-2.0702,-2.0693,-2.0687,-2.0687,-2.0686,-2.0686,-2.0687,-2.068,-2.069,-2.069,-2.069,-2.069,-2.0689,0,-2.0888,-2.0877,-2.0866,-2.0849,-2.084,-2.083,-2.0816,-2.0809,-2.0798,-2.0785,-2.0774,-2.0759,-2.0747,-2.073,-2.0716,-2.0711,-2.0705,-2.0708,-2.0707,-2.0705,-2.0693,-2.0695,-2.0713,-2.0713,-2.0713,-2.0713,-2.0713,-2.0713,-2.0892,-2.0883,-2.0874,-2.0859,-2.0848,-2.0836,-2.0829,-2.0819,-2.0808,-2.0793,-2.0782,-2.0772,-2.0757,-2.0742,-2.073,-2.0725,-2.0721,-2.0725,-2.0719,-2.0708,-2.0706,-2.0703,-2.0704,-2.0725,-2.0725,-2.0731,-2.0731,-2.0731]},{"header":{"parameterUnit":"m.s-1","parameterCategory":1,"la1":30.2991,"la2":30.254,"lo1":-89.0895,"lo2":-89.0444,"dy":0.0017,"dx":0.0017,"nx":28,"ny":28,"refTime":"2025-08-24T21:00:00:Z","depth":0,"parameterNumber":3,"parameterNumberName":"V-component_of_WINDS"},"data":[0,0,0,0,0,0,0,0,0,0,0,0,0,0,0,0,0,0,0,0,0,0,0,0,0,0,0,0,0,0,0,0,0,0,0,0,0,0,0,0,0,0,0,0,0,0,0,0,0,0,0,0,0,0,0,0,0,0,3.209,3.2091,0,3.2127,3.2128,3.2128,3.219,3.2191,3.2192,3.2194,3.2226,3.2226,3.2226,0,0,0,0,0,0,0,0,0,0,0,0,0,3.207,3.207,3.209,3.2091,3.2091,3.2127,3.2128,3.2128,3.219,3.2191,3.2193,3.2194,3.2227,3.2226,3.2226,0,0,0,0,0,0,0,0,0,0,0,0,0,3.209,3.207,3.209,3.2126,3.213,3.2127,3.2128,3.2128,3.219,3.2191,3.2193,3.2195,3.2227,3.2226,3.2226,3.2189,0,0,3.2225,3.2225,0,0,0,0,0,0,0,0,3.2088,3.209,3.2121,3.2124,3.2128,3.2156,3.2133,3.2148,3.2189,3.2167,3.2194,3.2196,3.2201,3.2203,3.2206,3.219,3.2192,3.2225,3.2225,3.2225,3.2225,0,0,0,0,0,0,0,3.2087,3.2089,3.2105,3.2121,3.2125,3.214,3.2145,3.2136,3.2174,3.2169,3.2174,3.2177,3.2204,3.2206,3.2207,3.2192,3.2225,3.2225,3.2224,3.2224,3.2149,3.2147,0,0,0,0,0,0,3.2081,3.2088,3.2104,3.2106,3.2112,3.2139,3.2144,3.2145,3.2174,3.218,3.2176,3.218,3.2206,3.2208,3.2209,3.2167,3.2225,3.2224,3.2224,3.2151,3.2149,3.2147,0,0,0,0,0,0,3.208,3.2082,3.2102,3.2098,3.2102,3.2137,3.2138,3.2145,3.2148,3.2179,3.2186,3.2172,3.2207,3.2209,3.2194,3.2169,3.2224,3.2224,3.2153,3.215,3.2148,3.2084,0,0,0,0,0,0,3.2079,3.2081,3.2068,3.2097,3.2102,3.2087,3.2136,3.2144,3.2148,3.2154,3.2177,3.2183,3.2209,3.2194,3.2194,3.217,3.2224,3.2155,3.2152,3.2148,3.2088,3.208,3.2072,0,0,0,0,0,3.2078,3.2047,3.2067,3.2069,3.2086,3.2086,3.2088,3.212,3.2145,3.2132,3.2153,3.2182,3.2173,3.2192,3.2192,3.2168,3.2157,3.2153,3.2149,3.2092,3.2081,3.2072,0,0,0,0,0,0,3.2012,3.2052,3.2074,3.2052,3.2065,3.2096,3.208,3.2108,3.2113,3.2118,3.2157,3.2161,3.2141,3.2153,3.2174,3.2134,3.2169,3.2165,3.2126,3.2116,3.2108,3.2105,3.2223,0,0,0,0,0,3.1995,3.1993,3.2027,3.2004,3.201,3.2044,3.2045,3.2069,3.2084,3.2089,3.2109,3.212,3.2121,3.2119,3.2121,3.2091,3.2097,3.2075,3.2066,3.2059,3.2055,3.204,3.203,3.2133,3.2133,3.2133,0,0,3.1959,3.1981,3.1977,3.1992,3.2005,3.2,3.2048,3.2041,3.2038,3.2088,3.2075,3.209,3.2106,3.2083,3.2074,3.2092,3.2028,3.2054,3.2048,3.2048,3.2035,3.2025,3.2016,3.2131,3.2131,3.2131,0,0,3.1892,3.1909,3.1892,3.1905,3.1925,3.1948,3.1944,3.1972,3.1984,3.1972,3.2009,3.2006,3.2005,3.2015,3.202,3.1958,3.1985,3.1958,3.1914,3.1899,3.1891,3.1884,3.1861,3.1853,3.1953,3.1953,3.1953,0,3.1844,3.1841,3.1879,3.187,3.1875,3.1923,3.1905,3.1915,3.1934,3.1936,3.1957,3.1958,3.1972,3.1953,3.1938,3.1941,3.1936,3.1954,3.1889,3.1883,3.1876,3.1855,3.1847,3.195,3.195,3.195,3.1951,0,3.1781,3.1778,3.1762,3.1781,3.1785,3.1771,3.1807,3.1806,3.183,3.185,3.1838,3.1857,3.1864,3.1861,3.1884,3.1845,3.1856,3.1883,3.1919,3.1862,3.1843,3.1836,3.1945,3.1946,3.1947,3.1948,0,0,3.167,3.1713,3.1706,3.1716,3.1743,3.1741,3.173,3.1738,3.1736,3.1748,3.1739,3.1739,3.1764,3.177,3.1794,3.1781,3.1731,3.181,3.1811,3.1794,3.1689,3.1668,3.1658,3.175,3.1749,3.1748,3.1688,0,3.1608,3.1593,3.1628,3.1604,3.1601,3.1647,3.1637,3.1652,3.1672,3.1672,3.1693,3.1691,3.1725,3.1729,3.1719,3.1739,3.1711,3.1745,3.1741,3.174,3.1734,3.1648,3.1626,3.1568,3.1681,3.1679,3.1678,0,3.1532,3.1543,3.1519,3.1548,3.1549,3.1539,3.1551,3.155,3.1568,3.1583,3.1591,3.162,3.1611,3.1647,3.1634,3.1656,3.1657,3.1667,3.1666,3.1665,3.1705,3.1644,3.155,3.1541,3.1667,3.1668,3.1669,0,3.1453,3.1461,3.1448,3.1455,3.1489,3.1482,3.1496,3.1516,3.1519,3.1528,3.1531,3.1538,3.1541,3.1546,3.1577,3.16,3.156,3.1598,3.1571,3.157,3.1558,3.1558,3.1462,3.1561,3.1561,3.1561,3.1561,0,3.1379,3.1362,3.1413,3.1405,3.1388,3.1428,3.1409,3.1428,3.1445,3.1441,3.1481,3.1475,3.1517,3.1515,3.1539,3.1525,3.1526,3.1537,3.1543,3.1533,3.1531,3.1533,3.1537,3.1559,3.1559,3.156,3.156,0,3.1286,3.132,3.1309,3.1344,3.1352,3.1338,3.1366,3.136,3.1383,3.1377,3.1377,3.1413,3.1414,3.1445,3.1452,3.1468,3.1443,3.1457,3.1437,3.1441,3.1412,3.1414,3.1312,3.13,3.1407,3.1406,3.1405,0,3.1236,3.1225,3.1259,3.1259,3.1272,3.1272,3.1277,3.1316,3.1318,3.1339,3.1329,3.1334,3.134,3.1339,3.1364,3.137,3.1384,3.1348,3.1385,3.1375,3.1382,3.1382,3.1381,3.1339,3.1338,3.1337,3.1336,0,3.1143,3.1161,3.1166,3.1178,3.1182,3.1192,3.1205,3.1203,3.1246,3.1247,3.125,3.1254,3.1263,3.1266,3.1277,3.129,3.1319,3.1325,3.1318,3.1307,3.1295,3.13,3.1415,3.1326,3.1327,3.1328,3.1328,3.1329,3.1069,3.1062,3.1085,3.109,3.1104,3.1116,3.1112,3.1135,3.1139,3.115,3.1173,3.1171,3.119,3.1208,3.1219,3.1218,3.1236,3.1227,3.1224,3.1221,3.1215,3.1297,3.122,3.122,3.122,3.1221,3.1221,0,3.0978,3.0996,3.1,3.1018,3.1022,3.1052,3.1068,3.1069,3.1068,3.1084,3.109,3.1093,3.1097,3.1124,3.1131,3.1125,3.1138,3.1125,3.1125,3.1128,3.1199,3.1203,3.1114,3.1114,3.1114,3.1114,3.1114,3.1114,3.093,3.0919,3.094,3.0937,3.0954,3.0955,3.0962,3.0972,3.0986,3.0988,3.0992,3.1011,3.1031,3.104,3.1045,3.1053,3.1053,3.1035,3.1047,3.1112,3.1122,3.1132,3.1137,3.1035,3.1035,3.0976,3.0975,3.0975]}]]